ONEWEB-0206 (48227 NORAD) Tracking and Keplerian Element Data

This shows tracking and keplerian element data for the satellite.

Feedback or suggestion? Click here.




ElementValue
Catalog48227
NameONEWEB-0206
Epoch Orbit194
Epoch Day173.83334491
Epoch Year2021
RAAN294.0889
Inclination87.5202
Eccentricity0.0010528
Argument of Perigee77.2654
Mean Anonmoly195.6986
Mean Motion14.34108873
Decay Rate-0.00948996
L11 48227U 21031T 21173.83334491 -.00948996 00000-0 -36112+0 0 9998
L22 48227 87.5202 294.0889 0010528 77.2654 195.6986 14.34108873 1943

Live tracking and technical data element details for ONEWEB-0206 (NORAD 48227). ONEWEB-0206 can be tracked NOW for your location showing map with azimuth and elevation plus other details from your city location.

Track the satellite on the map from your city or location and see movement details for azimuth, elevation, latitude, longitude, range, height, and movement on the map or in text.







IsCatalogInMostPopularTable: catalog: 48227, numindb: 21
Update: records affected: 1



GetName: 48227 ONEWEB-0206

Hit Count: updated at: Thu, 24 Jun 2021 04:08:19 GMT